This demonstration page uses our WeatherBlox Daily Observations layout. Learn more.

Left ArrowRight Arrow

38.83388, -104.82136

Hourly Observations for November 12, 2019

Temp ( °F °C ) Dew Point ( °F °C ) Humidity (%) Winds ( mph kmh ) Pressure ( in mb ) Visibility ( mi km ) Precip ( " mm )
12:58 am 00:58 Clear 19 -7.1 15 -9.4 84 84 Calm 30.26 1025 10 16 0.00 0.00
1:58 am 01:58 Clear 21 -6.3 14 -9.8 77 77 Calm 30.21 1023 10 16 0.00 0.00
2:58 am 02:58 Clear 24 -4.6 14 -10.1 66 66 Calm 30.19 1022 10 16 0.00 0.00
3:58 am 03:58 Clear 23 -5.1 12 -11.1 63 63 Calm 30.17 1022 10 16 0.00 0.00
4:58 am 04:58 Clear 25 -3.9 9 -12.7 51 51 Calm 30.12 1020 10 16 0.00 0.00
5:58 am 05:58 Clear 26 -3.2 7 -13.7 45 45 NNW 9 15 30.09 1019 10 16 0.00 0.00
6:58 am 06:58 Sunny 26 -3.2 8 -13.6 45 45 WSW 3 6 30.07 1018 10 16 0.00 0.00
7:58 am 07:58 Sunny 32 -0.2 11 -11.7 42 42 Calm 30.03 1017 10 16 0.00 0.00
8:58 am 08:58 Sunny 35 1.8 16 -8.7 46 46 Calm 30.03 1017 10 16 0.00 0.00
9:58 am 09:58 Sunny 41 4.8 19 -7.1 42 42 Calm 30.00 1016 10 16 0.00 0.00
10:58 am 10:58 Sunny 45 7.2 18 -7.7 34 34 SE 5 7 29.96 1015 10 16 0.00 0.00
3:58 pm 15:58 Sunny 45 7.2 20 -6.8 37 37 Calm 29.80 1009 10 16 0.00 0.00
4:58 pm 16:58 Clear 42 5.6 14 -10.2 31 31 Calm 29.79 1009 10 16 0.00 0.00
5:58 pm 17:58 Clear 41 4.8 15 -9.6 35 35 Calm 29.78 1009 10 16 0.00 0.00
6:58 pm 18:58 Clear 41 5 14 -9.9 33 33 NNW 5 7 29.77 1008 10 16 0.00 0.00
7:58 pm 19:58 Clear 40 4.7 16 -8.9 37 37 WNW 5 7 29.73 1007 10 16 0.00 0.00
8:58 pm 20:58 Clear 43 6.2 4 -15.6 19 19 WNW 6 9 29.69 1005 10 16 0.00 0.00
9:58 pm 21:58 Clear 45 7.2 3 -16.1 17 17 Calm 29.64 1004 10 16 0.00 0.00
10:58 pm 22:58 Clear 46 7.7 1 -17.5 15 15 Calm 29.58 1002 10 16 0.00 0.00
11:58 pm 23:58 Mostly Clear 47 8.2 8 -13.2 21 21 W 5 7 29.76 1008 10 16 0.00 0.00

Powered by AerisWeather